This is the latest recevied weather packets stored in our database for station/object KG2V. If no packets are shown the sender has not sent any weather packets the latest 1 day(s).
| Time | Temp. | Humidity | Pressure | Rain* | Wind** | Luminosity | Snow |
|---|---|---|---|---|---|---|---|
| 1778016469 | 16.11° C | 76% | 1002.8 hPa | 0 mm | 0.45 m/s, 184° | 9 W/m² | - |
| 1778016167 | 16.11° C | 76% | 1002.5 hPa | 0 mm | 0.89 m/s, 257° | 26 W/m² | - |
| 1778015864 | 16.67° C | 74% | 1002.1 hPa | 0 mm | 0.89 m/s, 251° | 71 W/m² | - |
| 1778015561 | 16.67° C | 73% | 1001.8 hPa | 0 mm | 1.79 m/s, 262° | 92 W/m² | - |
| 1778015257 | 16.67° C | 72% | 1001.8 hPa | 0 mm | 1.34 m/s, 230° | 136 W/m² | - |
| 1778014954 | 17.22° C | 73% | 1001.7 hPa | 0 mm | 1.79 m/s, 224° | 163 W/m² | - |
| 1778014652 | 17.22° C | 73% | 1001.7 hPa | 0 mm | 1.79 m/s, 251° | 162 W/m² | - |
| 1778014350 | 17.22° C | 72% | 1001.9 hPa | 0 mm | 1.79 m/s, 28° | 141 W/m² | - |
| 1778014046 | 17.22° C | 71% | 1002.1 hPa | 0 mm | 1.79 m/s, 249° | 96 W/m² | - |
| 1778013744 | 17.22° C | 71% | 1001.8 hPa | 0 mm | 1.79 m/s, 211° | 81 W/m² | - |
| 1778013441 | 17.22° C | 70% | 1001.6 hPa | 0 mm | 1.79 m/s, 235° | 96 W/m² | - |
| 1778013138 | 17.78° C | 70% | 1001.4 hPa | 0 mm | 1.34 m/s, 221° | 120 W/m² | - |
| 1778012834 | 17.78° C | 70% | 1001.6 hPa | 0 mm | 1.79 m/s, 221° | 98 W/m² | - |
| 1778012530 | 17.78° C | 69% | 1001.5 hPa | 0 mm | 2.68 m/s, 175° | 93 W/m² | - |
| 1778012227 | 18.33° C | 69% | 1001.4 hPa | 0 mm | 1.34 m/s, 183° | 83 W/m² | - |
| 1778011927 | 18.33° C | 67% | 1001.4 hPa | 0 mm | 2.24 m/s, 219° | 69 W/m² | - |
| 1778011622 | 18.33° C | 67% | 1001.3 hPa | 0 mm | 3.13 m/s, 241° | 103 W/m² | - |
| 1778011319 | 18.89° C | 65% | 1001.4 hPa | 0 mm | 2.24 m/s, 228° | 258 W/m² | - |
| 1778011015 | 18.89° C | 66% | 1001.4 hPa | 0 mm | 2.68 m/s, 251° | 244 W/m² | - |
| 1778010712 | 18.89° C | 67% | 1001.2 hPa | 0 mm | 1.79 m/s, 228° | 287 W/m² | - |
| 1778010409 | 18.89° C | 66% | 1001.3 hPa | 0 mm | 1.79 m/s, 144° | 291 W/m² | - |
| 1778010105 | 18.89° C | 66% | 1001.5 hPa | 0 mm | 1.79 m/s, 257° | 195 W/m² | - |
| 1778009802 | 18.89° C | 66% | 1001.6 hPa | 0 mm | 2.24 m/s, 288° | 237 W/m² | - |
| 1778009499 | 18.89° C | 66% | 1001.7 hPa | 0 mm | 2.68 m/s, 282° | 244 W/m² | - |
| 1778009198 | 18.89° C | 66% | 1001.3 hPa | 0 mm | 2.24 m/s, 241° | 228 W/m² | - |
* Rain latest hour (hover to see other rain measurements)
** Current wind speed in m/s (hover to see current wind gust speed)